Time,TemperatureF,DewpointF,PressureIn,WindDirection,WindDirectionDegrees,WindSpeedMPH,WindSpeedGustMPH,Humidity,HourlyPrecipIn,Conditions,Clouds,dailyrainin,SolarRadiationWatts/m^2,SoftwareType,DateUTC
2013-01-16 00:02:00,18.0,10.0,-100.00,SSW,203,6.0,12.0,70,0.00,,,0.00,0.000000,,2013-01-16 06:02:00,
2013-01-16 00:11:00,17.0,10.0,-100.00,SSW,205,7.0,14.0,73,0.00,,,0.00,0.000000,,2013-01-16 06:11:00,
2013-01-16 00:33:00,17.0,10.0,-100.00,SSW,205,7.0,14.0,73,0.00,,,0.00,0.000000,,2013-01-16 06:33:00,
2013-01-16 00:43:00,17.0,10.0,-100.00,SSW,205,7.0,14.0,73,0.00,,,0.00,0.000000,,2013-01-16 06:43:00,
2013-01-16 00:53:00,17.0,10.0,-100.00,SSW,205,7.0,14.0,73,0.00,,,0.00,0.000000,,2013-01-16 06:53:00,
2013-01-16 01:02:00,17.0,10.0,-100.00,SSW,205,7.0,14.0,73,0.00,,,0.00,0.000000,,2013-01-16 07:02:00,
2013-01-16 01:11:00,17.0,9.0,-100.00,SSW,199,9.0,13.0,71,0.00,,,0.00,0.000000,,2013-01-16 07:11:00,
2013-01-16 01:33:00,17.0,9.0,-100.00,SSW,199,9.0,13.0,71,0.00,,,0.00,0.000000,,2013-01-16 07:33:00,
2013-01-16 01:42:00,17.0,9.0,-100.00,SSW,199,9.0,13.0,71,0.00,,,0.00,0.000000,,2013-01-16 07:42:00,
2013-01-16 01:52:00,17.0,9.0,-100.00,SSW,199,9.0,13.0,71,0.00,,,0.00,0.000000,,2013-01-16 07:52:00,
2013-01-16 02:02:00,17.0,9.0,-100.00,SSW,199,9.0,13.0,71,0.00,,,0.00,0.000000,,2013-01-16 08:02:00,
2013-01-16 02:11:00,16.0,8.0,-100.00,SSW,199,9.0,14.0,70,0.00,,,0.00,0.000000,,2013-01-16 08:11:00,
2013-01-16 02:32:00,16.0,8.0,-100.00,SSW,199,9.0,14.0,70,0.00,,,0.00,0.000000,,2013-01-16 08:32:00,
2013-01-16 02:42:00,16.0,8.0,-100.00,SSW,199,9.0,14.0,70,0.00,,,0.00,0.000000,,2013-01-16 08:42:00,
2013-01-16 02:53:00,16.0,8.0,-100.00,SSW,199,9.0,14.0,70,0.00,,,0.00,0.000000,,2013-01-16 08:53:00,
2013-01-16 03:02:00,16.0,8.0,-100.00,SSW,199,9.0,14.0,70,0.00,,,0.00,0.000000,,2013-01-16 09:02:00,
2013-01-16 03:11:00,15.0,7.0,-100.00,SSW,208,7.0,15.0,71,0.00,,,0.00,0.000000,,2013-01-16 09:11:00,
2013-01-16 03:33:00,15.0,7.0,-100.00,SSW,208,7.0,15.0,71,0.00,,,0.00,0.000000,,2013-01-16 09:33:00,
2013-01-16 03:43:00,15.0,7.0,-100.00,SSW,208,7.0,15.0,71,0.00,,,0.00,0.000000,,2013-01-16 09:43:00,
2013-01-16 03:53:00,15.0,7.0,-100.00,SSW,208,7.0,15.0,71,0.00,,,0.00,0.000000,,2013-01-16 09:53:00,
2013-01-16 04:02:00,15.0,7.0,-100.00,SSW,208,7.0,15.0,71,0.00,,,0.00,0.000000,,2013-01-16 10:02:00,
2013-01-16 04:11:00,16.0,8.0,-100.00,SSW,202,10.0,16.0,70,0.00,,,0.00,0.000000,,2013-01-16 10:11:00,
2013-01-16 04:33:00,16.0,8.0,-100.00,SSW,202,10.0,16.0,70,0.00,,,0.00,0.000000,,2013-01-16 10:33:00,
2013-01-16 04:43:00,16.0,8.0,-100.00,SSW,202,10.0,16.0,70,0.00,,,0.00,0.000000,,2013-01-16 10:43:00,
2013-01-16 04:53:00,16.0,8.0,-100.00,SSW,202,10.0,16.0,70,0.00,,,0.00,0.000000,,2013-01-16 10:53:00,
2013-01-16 05:02:00,16.0,8.0,-100.00,SSW,202,10.0,16.0,70,0.00,,,0.00,0.000000,,2013-01-16 11:02:00,
2013-01-16 05:11:00,16.0,8.0,-100.00,SSW,195,10.0,17.0,70,0.00,,,0.00,0.000000,,2013-01-16 11:11:00,
2013-01-16 05:33:00,16.0,8.0,-100.00,SSW,195,10.0,17.0,70,0.00,,,0.00,0.000000,,2013-01-16 11:33:00,
2013-01-16 05:43:00,16.0,8.0,-100.00,SSW,195,10.0,17.0,70,0.00,,,0.00,0.000000,,2013-01-16 11:43:00,
2013-01-16 05:53:00,16.0,8.0,-100.00,SSW,195,10.0,17.0,70,0.00,,,0.00,0.000000,,2013-01-16 11:53:00,
2013-01-16 06:03:00,16.0,8.0,-100.00,SSW,195,10.0,17.0,70,0.00,,,0.00,0.000000,,2013-01-16 12:03:00,
2013-01-16 06:11:00,16.0,9.0,-100.00,SSW,196,10.0,21.0,72,0.00,,,0.00,0.000000,,2013-01-16 12:11:00,
2013-01-16 06:33:00,16.0,9.0,-100.00,SSW,196,10.0,21.0,72,0.00,,,0.00,0.000000,,2013-01-16 12:33:00,
2013-01-16 06:43:00,16.0,9.0,-100.00,SSW,196,10.0,21.0,72,0.00,,,0.00,0.000000,,2013-01-16 12:43:00,
2013-01-16 06:53:00,16.0,9.0,-100.00,SSW,196,10.0,21.0,72,0.00,,,0.00,0.000000,,2013-01-16 12:53:00,
2013-01-16 07:03:00,16.0,9.0,-100.00,SSW,196,10.0,21.0,72,0.00,,,0.00,0.000000,,2013-01-16 13:03:00,
2013-01-16 07:11:00,17.0,10.0,-100.00,SSW,201,10.0,17.0,72,0.00,,,0.00,0.000000,,2013-01-16 13:11:00,
2013-01-16 07:33:00,17.0,10.0,-100.00,SSW,201,10.0,17.0,72,0.00,,,0.00,0.000000,,2013-01-16 13:33:00,
2013-01-16 07:43:00,17.0,10.0,-100.00,SSW,201,10.0,17.0,72,0.00,,,0.00,0.000000,,2013-01-16 13:43:00,
2013-01-16 07:53:00,17.0,10.0,-100.00,SSW,201,10.0,17.0,72,0.00,,,0.00,0.000000,,2013-01-16 13:53:00,
2013-01-16 08:03:00,17.0,10.0,-100.00,SSW,201,10.0,17.0,72,0.00,,,0.00,0.000000,,2013-01-16 14:03:00,
2013-01-16 08:11:00,20.0,12.0,-100.00,SSW,209,11.0,19.0,70,0.00,,,0.00,9.000000,,2013-01-16 14:11:00,
2013-01-16 08:33:00,20.0,12.0,-100.00,SSW,209,11.0,19.0,70,0.00,,,0.00,9.000000,,2013-01-16 14:33:00,
2013-01-16 08:43:00,20.0,12.0,-100.00,SSW,209,11.0,19.0,70,0.00,,,0.00,9.000000,,2013-01-16 14:43:00,
2013-01-16 08:53:00,20.0,12.0,-100.00,SSW,209,11.0,19.0,70,0.00,,,0.00,9.000000,,2013-01-16 14:53:00,
2013-01-16 09:03:00,20.0,12.0,-100.00,SSW,209,11.0,19.0,70,0.00,,,0.00,9.000000,,2013-01-16 15:03:00,
2013-01-16 09:11:00,23.0,15.0,-100.00,SW,217,10.0,17.0,70,0.00,,,0.00,49.000000,,2013-01-16 15:11:00,
2013-01-16 09:43:00,23.0,15.0,-100.00,SW,217,10.0,17.0,70,0.00,,,0.00,49.000000,,2013-01-16 15:43:00,
2013-01-16 09:53:00,23.0,15.0,-100.00,SW,217,10.0,17.0,70,0.00,,,0.00,49.000000,,2013-01-16 15:53:00,
2013-01-16 10:03:00,23.0,15.0,-100.00,SW,217,10.0,17.0,70,0.00,,,0.00,49.000000,,2013-01-16 16:03:00,
2013-01-16 10:11:00,25.0,15.0,-100.00,WSW,246,10.0,20.0,64,0.00,,,0.00,92.000000,,2013-01-16 16:11:00,
2013-01-16 10:33:00,25.0,15.0,-100.00,WSW,246,10.0,20.0,64,0.00,,,0.00,92.000000,,2013-01-16 16:33:00,
2013-01-16 10:43:00,25.0,15.0,-100.00,WSW,246,10.0,20.0,64,0.00,,,0.00,92.000000,,2013-01-16 16:43:00,
2013-01-16 10:53:00,25.0,15.0,-100.00,WSW,246,10.0,20.0,64,0.00,,,0.00,92.000000,,2013-01-16 16:53:00,
2013-01-16 11:03:00,25.0,15.0,-100.00,WSW,246,10.0,20.0,64,0.00,,,0.00,92.000000,,2013-01-16 17:03:00,
2013-01-16 11:11:00,27.0,18.0,-100.00,WSW,252,11.0,21.0,67,0.00,,,-99.99,133.000000,,2013-01-16 17:11:00,
2013-01-16 11:33:00,27.0,18.0,-100.00,WSW,252,11.0,21.0,67,0.00,,,-99.99,133.000000,,2013-01-16 17:33:00,
2013-01-16 11:44:00,27.0,18.0,-100.00,WSW,252,11.0,21.0,67,0.00,,,-99.99,133.000000,,2013-01-16 17:44:00,
2013-01-16 11:53:00,27.0,18.0,-100.00,WSW,252,11.0,21.0,67,0.00,,,-99.99,133.000000,,2013-01-16 17:53:00,
2013-01-16 12:03:00,27.0,18.0,-100.00,WSW,252,11.0,21.0,67,0.00,,,-99.99,133.000000,,2013-01-16 18:03:00,
2013-01-16 12:11:00,28.0,22.0,-100.00,WSW,253,10.0,22.0,79,0.00,,,0.00,147.000000,,2013-01-16 18:11:00,
2013-01-16 12:33:00,28.0,22.0,-100.00,WSW,253,10.0,22.0,79,0.00,,,0.00,147.000000,,2013-01-16 18:33:00,
2013-01-16 12:43:00,28.0,22.0,-100.00,WSW,253,10.0,22.0,79,0.00,,,0.00,147.000000,,2013-01-16 18:43:00,
2013-01-16 12:53:00,28.0,22.0,-100.00,WSW,253,10.0,22.0,79,0.00,,,0.00,147.000000,,2013-01-16 18:53:00,
2013-01-16 13:03:00,28.0,22.0,-100.00,WSW,253,10.0,22.0,79,0.00,,,0.00,147.000000,,2013-01-16 19:03:00,
2013-01-16 13:11:00,30.0,24.0,-100.00,WSW,244,8.0,18.0,77,0.00,,,0.00,126.000000,,2013-01-16 19:11:00,
2013-01-16 13:33:00,30.0,24.0,-100.00,WSW,244,8.0,18.0,77,0.00,,,0.00,126.000000,,2013-01-16 19:33:00,
2013-01-16 13:43:00,30.0,24.0,-100.00,WSW,244,8.0,18.0,77,0.00,,,0.00,126.000000,,2013-01-16 19:43:00,
2013-01-16 13:53:00,30.0,24.0,-100.00,WSW,244,8.0,18.0,77,0.00,,,0.00,126.000000,,2013-01-16 19:53:00,
2013-01-16 14:03:00,30.0,24.0,-100.00,WSW,244,8.0,18.0,77,0.00,,,0.00,126.000000,,2013-01-16 20:03:00,
2013-01-16 14:11:00,30.0,24.0,-100.00,West,259,8.0,16.0,79,0.00,,,0.00,87.000000,,2013-01-16 20:11:00,
2013-01-16 14:43:00,30.0,24.0,-100.00,West,259,8.0,16.0,79,0.00,,,0.00,87.000000,,2013-01-16 20:43:00,
2013-01-16 14:53:00,30.0,24.0,-100.00,West,259,8.0,16.0,79,0.00,,,0.00,87.000000,,2013-01-16 20:53:00,
2013-01-16 15:03:00,30.0,24.0,-100.00,West,259,8.0,16.0,79,0.00,,,0.00,87.000000,,2013-01-16 21:03:00,
2013-01-16 15:11:00,32.0,27.0,-100.00,West,269,9.0,16.0,82,0.00,,,0.00,83.000000,,2013-01-16 21:11:00,
2013-01-16 15:43:00,32.0,27.0,-100.00,West,269,9.0,16.0,82,0.00,,,0.00,83.000000,,2013-01-16 21:43:00,
2013-01-16 15:53:00,32.0,27.0,-100.00,West,269,9.0,16.0,82,0.00,,,0.00,83.000000,,2013-01-16 21:53:00,
2013-01-16 16:03:00,32.0,27.0,-100.00,West,269,9.0,16.0,82,0.00,,,0.00,83.000000,,2013-01-16 22:03:00,
2013-01-16 16:11:00,33.0,26.0,-100.00,West,271,9.0,15.0,75,0.00,,,0.00,128.000000,,2013-01-16 22:11:00,
2013-01-16 16:33:00,33.0,26.0,-100.00,West,271,9.0,15.0,75,0.00,,,0.00,128.000000,,2013-01-16 22:33:00,
2013-01-16 16:43:00,33.0,26.0,-100.00,West,271,9.0,15.0,75,0.00,,,0.00,128.000000,,2013-01-16 22:43:00,
2013-01-16 16:53:00,33.0,26.0,-100.00,West,271,9.0,15.0,75,0.00,,,0.00,128.000000,,2013-01-16 22:53:00,
2013-01-16 17:03:00,33.0,26.0,-100.00,West,271,9.0,15.0,75,0.00,,,0.00,128.000000,,2013-01-16 23:03:00,
2013-01-16 17:11:00,33.0,28.0,-100.00,WSW,255,5.0,12.0,81,0.00,,,0.00,10.000000,,2013-01-16 23:11:00,
2013-01-16 17:33:00,33.0,28.0,-100.00,WSW,255,5.0,12.0,81,0.00,,,0.00,10.000000,,2013-01-16 23:33:00,
2013-01-16 17:43:00,33.0,28.0,-100.00,WSW,255,5.0,12.0,81,0.00,,,0.00,10.000000,,2013-01-16 23:43:00,
2013-01-16 17:53:00,33.0,28.0,-100.00,WSW,255,5.0,12.0,81,0.00,,,0.00,10.000000,,2013-01-16 23:53:00,
2013-01-16 18:02:00,33.0,28.0,-100.00,WSW,255,5.0,12.0,81,0.00,,,0.00,10.000000,,2013-01-17 00:02:00,
2013-01-16 18:11:00,34.0,29.0,-100.00,West,263,9.0,14.0,83,0.00,,,0.00,0.000000,,2013-01-17 00:11:00,
2013-01-16 18:33:00,34.0,29.0,-100.00,West,263,9.0,14.0,83,0.00,,,0.00,0.000000,,2013-01-17 00:33:00,
2013-01-16 18:42:00,34.0,29.0,-100.00,West,263,9.0,14.0,83,0.00,,,0.00,0.000000,,2013-01-17 00:42:00,
2013-01-16 18:52:00,34.0,29.0,-100.00,West,263,9.0,14.0,83,0.00,,,0.00,0.000000,,2013-01-17 00:52:00,
2013-01-16 19:02:00,34.0,29.0,-100.00,West,263,9.0,14.0,83,0.00,,,0.00,0.000000,,2013-01-17 01:02:00,
2013-01-16 19:11:00,34.0,32.0,-100.00,West,271,7.0,14.0,91,0.00,,,0.00,0.000000,,2013-01-17 01:11:00,
2013-01-16 19:33:00,34.0,32.0,-100.00,West,271,7.0,14.0,91,0.00,,,0.00,0.000000,,2013-01-17 01:33:00,
2013-01-16 19:43:00,34.0,32.0,-100.00,West,271,7.0,14.0,91,0.00,,,0.00,0.000000,,2013-01-17 01:43:00,
2013-01-16 19:52:00,34.0,32.0,-100.00,West,271,7.0,14.0,91,0.00,,,0.00,0.000000,,2013-01-17 01:52:00,
2013-01-16 20:02:00,34.0,32.0,-100.00,West,271,7.0,14.0,91,0.00,,,0.00,0.000000,,2013-01-17 02:02:00,
2013-01-16 20:11:00,33.0,32.0,-100.00,WNW,291,7.0,11.0,95,0.00,,,0.00,0.000000,,2013-01-17 02:11:00,
2013-01-16 20:32:00,33.0,32.0,-100.00,WNW,291,7.0,11.0,95,0.00,,,0.00,0.000000,,2013-01-17 02:32:00,
2013-01-16 20:43:00,33.0,32.0,-100.00,WNW,291,7.0,11.0,95,0.00,,,0.00,0.000000,,2013-01-17 02:43:00,
2013-01-16 20:52:00,33.0,32.0,-100.00,WNW,291,7.0,11.0,95,0.00,,,0.00,0.000000,,2013-01-17 02:52:00,
2013-01-16 21:03:00,33.0,32.0,-100.00,WNW,291,7.0,11.0,95,0.00,,,0.00,0.000000,,2013-01-17 03:03:00,
2013-01-16 21:11:00,33.0,31.0,-100.00,WNW,301,6.0,11.0,92,0.00,,,0.00,0.000000,,2013-01-17 03:11:00,
2013-01-16 21:33:00,33.0,31.0,-100.00,WNW,301,6.0,11.0,92,0.00,,,0.00,0.000000,,2013-01-17 03:33:00,
2013-01-16 21:43:00,33.0,31.0,-100.00,WNW,301,6.0,11.0,92,0.00,,,0.00,0.000000,,2013-01-17 03:43:00,
2013-01-16 21:53:00,33.0,31.0,-100.00,WNW,301,6.0,11.0,92,0.00,,,0.00,0.000000,,2013-01-17 03:53:00,
2013-01-16 22:02:00,33.0,31.0,-100.00,WNW,301,6.0,11.0,92,0.00,,,0.00,0.000000,,2013-01-17 04:02:00,
2013-01-16 22:11:00,31.0,27.0,-100.00,NNW,341,13.0,20.0,85,0.00,,,0.00,0.000000,,2013-01-17 04:11:00,
2013-01-16 22:33:00,31.0,27.0,-100.00,NNW,341,13.0,20.0,85,0.00,,,0.00,0.000000,,2013-01-17 04:33:00,
2013-01-16 22:43:00,31.0,27.0,-100.00,NNW,341,13.0,20.0,85,0.00,,,0.00,0.000000,,2013-01-17 04:43:00,
2013-01-16 22:52:00,31.0,27.0,-100.00,NNW,341,13.0,20.0,85,0.00,,,0.00,0.000000,,2013-01-17 04:52:00,
2013-01-16 23:04:00,31.0,27.0,-100.00,NNW,341,13.0,20.0,85,0.00,,,0.00,0.000000,,2013-01-17 05:04:00,
2013-01-16 23:11:00,27.0,20.0,-100.00,NNW,338,10.0,22.0,73,0.00,,,0.00,0.000000,,2013-01-17 05:11:00,
2013-01-16 23:33:00,27.0,20.0,-100.00,NNW,338,10.0,22.0,73,0.00,,,0.00,0.000000,,2013-01-17 05:33:00,
2013-01-16 23:43:00,27.0,20.0,-100.00,NNW,338,10.0,22.0,73,0.00,,,0.00,0.000000,,2013-01-17 05:43:00,
2013-01-16 23:53:00,27.0,20.0,-100.00,NNW,338,10.0,22.0,73,0.00,,,0.00,0.000000,,2013-01-17 05:53:00,